Location: Herisan
(47.3827°N, 9.2719°E)
Time: 18:44:00
(UTC+00:00)

Daily predictions for brighter satellites

Satellite Brightness Start Highest point End
(mag) Time Altitude Azimuth Time Altitude Azimuth Time Altitude Azimuth
S3M 4.3 19:12:02 10° SSE 19:18:11 52° E 19:24:18 10° NNE
BREEZE-M DEB (TANK) 4.3 19:16:39 10° WNW 19:21:21 84° NNE 19:40:35 10° ESE
ATLAS 5 CENTAUR R/B 2.5 19:16:15 10° NW 19:21:41 65° NE 19:28:09 10° SE
USA 290 2.5 19:20:02 10° NNW 19:23:14 51° ENE 19:26:22 10° SE
X-37B 0.9 19:21:50 10° W 19:24:57 51° S 19:28:04 10° ESE
Cosmos 1242 Rocket 3.3 19:23:11 10° SSE 19:26:22 31° E 19:29:34 10° NNE
SL-4 R/B 3.5 19:23:38 10° WNW 19:27:29 31° SW 19:31:34 10° SSE
Cosmos 1844 3.7 19:23:47 10° SSW 19:29:28 68° ESE 19:35:06 10° NNE
Sich 1 3.1 19:25:48 10° N 19:30:06 61° ENE 19:34:25 10° SSE
USA 307 4.2 19:28:31 10° WNW 19:32:30 37° N 19:36:30 10° E
Cosmos 1553 Rocket 4.1 19:29:27 10° S 19:35:36 84° W 19:41:53 10° N
Cosmos 1833 Rocket 3.8 19:31:25 10° NNW 19:36:25 31° NE 19:41:23 10° ESE
USA 186 4.1 19:39:01 10° SW 19:40:41 16° W 19:42:18 10° NW
Resurs 01 Rocket 1.7 19:39:27 10° SSE 19:43:51 68° ENE 19:48:17 10° N
Cosmos 1503 Rocket 4.0 19:39:36 10° S 19:44:41 60° ESE 19:49:49 10° NNE
Landsat 7 4.1 19:40:11 10° SSE 19:44:49 55° ENE 19:49:29 10° N
USA 308 4.1 19:42:06 10° WNW 19:46:08 39° NNE 19:50:12 10° E
Cosmos 1151 Rocket 3.5 19:45:34 10° SSE 19:49:39 41° E 19:53:48 10° NNE
CREW DRAGON DEMO-1 DEB 3.9 19:49:48 10° WNW 19:52:17 34° N 19:54:45 10° ENE
Meteor 1-26 Rocket 4.3 19:49:08 10° S 19:54:40 55° E 20:00:03 10° NNE
Ariane Rocket 3.6 19:50:02 10° S 19:54:59 56° W 19:59:59 10° NNW
Cosmos 2084 3.9 19:54:58 10° S 19:58:45 37° ESE 20:02:41 10° NE
BREEZE-M R/B 1.5 19:59:02 10° WSW 20:01:38 80° SSE 20:04:09 10° ENE
CZ-4C R/B 3.2 19:57:08 10° NW 20:04:10 65° NE 20:11:10 15° SE
CRYOSAT 2 4.4 20:05:30 12° SSE 20:09:55 65° E 20:14:46 10° N
Cosmos 1500 3.5 20:07:12 10° N 20:10:52 47° ENE 20:13:07 20° SE
NOSS 3-4 (A) 4.5 20:07:03 10° NW 20:13:35 47° NE 20:20:05 13° ESE
NOSS 3-4 (C) 4.5 20:07:09 10° NW 20:13:41 46° NE 20:20:12 13° ESE
Cosmos 2082 Rocket 3.3 20:09:04 10° NNW 20:14:04 31° NE 20:18:07 14° ESE
Cosmos 1515 Rocket 4.2 20:13:17 18° SSE 20:15:58 36° E 20:20:00 10° NNE
Cosmos 1933 4.0 20:12:46 10° SSW 20:16:44 55° WNW 20:20:43 10° N
Cosmos 1354 Rocket 4.0 20:11:58 10° SSW 20:17:12 86° WNW 20:22:29 10° NNE
COSMOS 2406 3.5 20:12:00 10° NNW 20:17:37 57° ENE 20:21:35 19° SE
SPOT 1/Viking Rocket 3.5 20:14:13 15° SSE 20:18:32 79° ENE 20:23:45 10° NNW
IGS 5A 4.0 20:17:51 11° S 20:21:47 56° W 20:25:53 10° NNW
NOSS 3-3 (A) 3.8 20:17:29 10° SSW 20:23:11 71° SE 20:29:43 10° NE
NOSS 3-3 (C) 3.8 20:17:36 10° SSW 20:23:17 70° SE 20:29:49 10° NE
Cosmos 1633 Rocket 3.2 20:19:07 10° NNW 20:23:32 76° W 20:27:09 15° S
ATLAS 2AS CENTAUR R/B 3.9 20:19:56 10° NW 20:26:54 38° NNE 20:33:15 11° E
USA 305 3.4 20:23:08 10° WNW 20:27:20 55° NNE 20:30:26 17° E
Milstar 3 4.5 20:20:46 10° SW 20:30:58 24° S 20:34:46 19° SSE
ARIANE 5 R/B 2.6 20:29:17 23° SSE 20:31:56 72° ENE 20:36:16 10° N
SPOT 3 Rocket 4.3 20:27:53 10° S 20:32:53 50° W 20:37:55 10° NNW
Cosmos 1782 3.2 20:29:54 10° SSW 20:33:51 65° W 20:37:51 10° N
Cosmos 1271 Rocket 3.7 20:33:00 26° ESE 20:34:05 30° E 20:37:38 10° NNE
Cosmos 1328 Rocket 3.6 20:29:49 10° S 20:34:16 85° W 20:38:43 10° N
Cosmos 1470 Rocket 3.5 20:30:18 10° N 20:34:48 82° E 20:37:35 23° SSE
Iridium 4 Rocket 4.0 20:34:45 21° SSE 20:38:25 53° E 20:44:09 10° N
Cosmos 2278 Rocket 2.3 20:34:06 10° S 20:39:34 54° ESE 20:45:06 10° NE
CZ-2C R/B 4.0 20:37:07 10° N 20:41:34 68° WNW 20:46:04 10° SSW
CARTOSAT-1 3.5 20:40:09 26° SSE 20:42:33 84° ENE 20:46:54 10° NNW
Cosmos 1437 2.9 20:41:33 22° SSW 20:43:11 59° WNW 20:46:00 10° N
USA 306 3.1 20:42:22 10° WNW 20:46:39 68° NNE 20:48:57 26° ESE
Cosmos 2184 Rocket 4.1 20:40:43 10° N 20:46:55 62° ENE 20:50:32 25° SSE
Cosmos 158 Rocket 4.3 20:42:46 10° NNW 20:47:32 49° ENE 20:49:49 28° ESE
Cosmos 1933 Rocket 3.5 20:44:48 10° N 20:49:10 76° E 20:51:09 31° SSE
Meteor 1-11 Rocket 4.2 20:43:54 10° N 20:49:45 52° ENE 20:52:49 27° SE
Cosmos 1538 Rocket 4.0 20:45:33 10° NNW 20:50:57 84° ENE 20:53:47 29° SSE
Cosmos 1943 Rocket 4.0 20:51:50 13° E 20:51:50 13° E 20:54:07 10° ENE
Terra 2.1 20:49:51 29° SE 20:52:02 55° ENE 20:56:42 10° N
Cosmos 2074 Rocket 4.0 20:46:19 10° N 20:52:39 71° E 20:56:22 26° SSE
SPOT 5 3.0 20:50:15 28° SSE 20:53:02 79° ENE 20:58:20 10° NNW
Nadezhda 1 Rocket 4.4 20:55:42 27° SSE 20:58:50 48° E 21:04:47 10° NNE
Cosmos 1340 Rocket 4.2 20:57:20 10° NNE 21:00:46 25° ENE 21:01:40 23° E
X-37B 2.4 20:58:40 10° WSW 21:00:37 21° SW 21:00:37 21° SW
USA 245 4.0 21:01:54 21° WSW 21:02:05 21° W 21:03:55 10° NW
Spot 2 Rocket 3.9 20:59:31 22° S 21:02:42 57° W 21:07:41 10° NNW
Cosmos 1812 3.0 21:02:06 23° SSW 21:04:21 63° W 21:08:12 10° N
ATLAS 5 CENTAUR R/B 3.7 21:01:14 10° WNW 21:06:13 30° WSW 21:10:12 16° SSW
Cosmos 1680 Rocket 4.2 21:02:47 10° NNW 21:07:52 43° ENE 21:10:09 28° ESE
SJ 16-02 1.2 21:05:55 30° S 21:08:03 75° ESE 21:12:30 10° NNE
H-2A R/B 3.5 21:06:16 10° NNE 21:10:26 59° ESE 21:11:28 44° SSE
USA 307 2.8 21:08:34 10° WNW 21:12:52 88° NNE 21:14:12 44° ESE
ERS-1 Rocket 3.1 21:10:30 30° S 21:13:00 69° WSW 21:18:02 10° NNW
Cosmos 1536 3.1 21:10:16 10° N 21:14:14 51° ENE 21:14:57 44° ESE
Meteor 1-10 Rocket 4.1 21:11:23 25° S 21:14:48 87° E 21:20:30 10° NNE
Cosmos 1610 Rocket 4.5 21:09:05 10° N 21:15:13 68° E 21:18:01 33° SSE
Cosmos 1666 3.1 21:12:57 10° NNW 21:16:38 56° W 21:17:42 39° SSW
CZ-4B DEB 4.1 21:17:35 76° S 21:17:48 84° WSW 21:21:02 10° NNW
Cosmos 1833 Rocket 3.2 21:15:08 10° NW 21:20:37 52° WSW 21:23:15 29° S
Resurs 01 Rocket 4.2 21:18:25 10° WSW 21:20:48 14° W 21:23:13 10° NW
deb Kosmos-1763 4.5 21:17:40 10° NNW 21:21:06 48° WSW 21:21:39 43° SW
Cosmos 2228 Rocket 3.0 21:23:47 45° S 21:25:07 81° E 21:29:36 10° N
USA 308 2.8 21:22:08 10° WNW 21:26:25 78° SW 21:27:15 56° SE
CREW DRAGON DEMO-1 DEB 4.2 21:24:07 10° WNW 21:25:38 29° WNW 21:25:38 29° WNW
Cosmos 1743 3.4 21:24:45 10° N 21:28:23 38° ENE 21:28:35 38° E
Cosmos 2341 Rocket 4.4 21:26:47 10° N 21:33:02 51° ENE 21:35:29 34° SE
Cosmos 2297 4.1 21:36:35 39° SE 21:37:23 41° ESE 21:42:41 10° NE
Cosmos 1238 Rocket 4.3 21:35:20 10° N 21:41:24 47° ENE 21:43:09 36° ESE
BREEZE M DEB (TANK) 3.4 21:38:56 10° WNW 21:40:27 23° W 21:40:27 23° W
Cosmos 923 Rocket 4.0 21:38:36 10° NNW 21:43:52 79° WSW 21:45:24 47° S
Cosmos 1898 Rocket 3.7 21:44:07 47° SE 21:45:04 54° ESE 21:50:17 10° NNE
Cosmos 1295 Rocket 4.5 21:39:03 10° N 21:45:25 85° W 21:48:03 38° S
Cosmos 2084 Rocket 4.3 21:46:25 10° NNW 21:50:29 43° NE 21:51:43 34° E
CZ-4C R/B 3.8 21:45:55 10° NW 21:52:43 40° WSW 21:56:21 27° SSW
Cosmos 1862 Rocket 4.3 21:53:45 37° E 21:53:45 37° E 21:57:34 10° NNE
Cosmos 1869 Rocket 4.1 21:53:40 10° NNW 21:57:50 47° W 21:58:40 41° SW
Cosmos 2082 Rocket 2.6 21:52:58 10° NW 21:58:23 50° WSW 21:59:58 39° SSW
Cosmos 990 Rocket 3.9 22:00:06 47° SSW 22:01:41 90° ESE 22:06:59 10° NNE
Cosmos 1544 3.4 21:59:43 10° NNW 22:03:05 57° W 22:03:05 57° W
NOSS 3-4 (A) 4.1 21:57:55 10° NW 22:04:45 55° WSW 22:07:31 38° S
NOSS 3-4 (C) 4.1 21:58:01 10° NW 22:04:52 56° WSW 22:07:38 38° S
USA 305 3.8 22:03:14 10° WNW 22:06:30 35° WSW 22:06:30 35° WSW
Meteor 1-27 Rocket 4.2 22:05:24 28° SW 22:08:23 58° WNW 22:14:14 10° N
SL-8 Rocket 4.0 22:08:23 10° N 22:14:46 79° E 22:16:39 48° SSE
DNEPR-1 R/B 4.1 22:15:13 55° SSE 22:15:48 58° ESE 22:20:45 10° NE
Cosmos 1707 Rocket 3.6 22:16:19 62° WSW 22:16:49 69° W 22:21:13 10° N
USA 215 3.8 22:12:05 10° E 22:18:26 56° NNE 22:24:47 10° NW
ATLAS 2AS CENTAUR R/B 2.7 22:11:07 10° NW 22:18:28 72° SW 22:20:39 46° SSE
ALOS 2 3.1 22:20:18 47° E 22:20:37 48° ENE 22:24:52 10° N
Cosmos 1515 3.9 22:21:30 69° NNW 22:21:30 69° NNW 22:24:54 10° N
Cosmos 2112 Rocket 4.3 22:17:18 10° NNW 22:22:34 58° WSW 22:23:29 50° SW
Cosmos 2278 Rocket 3.9 22:19:02 10° WSW 22:23:58 30° NW 22:28:56 10° NNE
Cosmos 1900 4.2 22:24:37 65° SSW 22:25:21 82° ESE 22:30:26 10° NE
Gbstr 26 Del rocket 4.0 22:18:20 10° WNW 22:25:44 82° NNE 22:29:05 30° ESE
Meteor 1-19 Rocket 4.0 22:26:33 61° SSE 22:27:26 75° E 22:32:50 10° NNE
Terra 3.7 22:28:43 17° WSW 22:30:07 19° W 22:33:33 10° NW
ERBS 3.6 22:29:30 10° NW 22:32:05 39° N 22:32:05 39° N
Cosmos 2369 Rocket 2.6 22:32:38 44° ESE 22:32:49 44° ESE 22:38:10 10° NE
Cosmos 1943 Rocket 2.0 22:33:19 58° SSW 22:34:27 82° ESE 22:40:06 10° NNE
Okean 1 3.5 22:35:16 66° WNW 22:35:16 66° WNW 22:39:05 10° N
Cosmos 1340 Rocket 4.2 22:33:38 10° NNW 22:37:13 30° W 22:37:15 30° W
SL-24 R/B - RUBIN 2 4.1 22:35:49 10° NW 22:41:06 53° WSW 22:41:12 53° SW
Meteor 2-9 Rocket 4.2 22:35:40 10° NNW 22:41:28 76° W 22:42:35 58° SSW
Cosmos 864 Rocket 4.4 22:36:26 10° N 22:42:36 83° W 22:44:06 54° S
Cosmos 1959 Rocket 4.4 22:39:09 10° NNW 22:45:24 77° W 22:46:55 53° SSW
Cosmos 2242 Rocket 4.0 22:46:59 50° E 22:46:59 50° E 22:51:02 10° NNE
SJ 16-02 4.1 22:44:32 10° W 22:47:12 15° NW 22:49:51 10° NNW
Spot 4 4.1 22:47:43 53° WSW 22:48:06 54° W 22:52:54 10° NNW
Cosmos 1733 Rocket 3.8 22:44:31 10° NNW 22:48:36 41° W 22:48:36 41° W
Cosmos 1937 Rocket 3.7 22:47:49 47° WSW 22:49:05 62° WNW 22:54:15 10° NNE
Cosmos 44 4.0 22:49:13 10° NW 22:54:20 44° WSW 22:54:21 44° WSW
Cosmos 1656 Rocket 4.1 22:56:46 43° ESE 22:56:49 43° ESE 23:02:01 10° NE
Cosmos 2263 4.5 22:56:27 50° ESE 22:56:51 51° ESE 23:02:26 10° NE
Meteor 2-4 Rocket 3.6 22:58:14 62° S 22:59:13 81° E 23:04:53 10° NNE
Cosmos 1048 Rocket 4.2 22:56:08 10° NNW 23:01:27 64° ENE 23:02:25 53° ESE
Cosmos 1908 Rocket 3.5 22:58:03 10° NNW 23:02:27 79° WNW 23:02:27 79° WNW
Cosmos 1461 3.0 23:02:50 85° ENE 23:02:50 85° ENE 23:07:24 10° NE
Cosmos 2181 Rocket 4.3 23:02:06 40° SW 23:04:04 56° WNW 23:10:07 10° N
Thor Agena Rocket 3.7 22:59:21 10° NNE 23:04:31 57° ESE 23:04:55 55° ESE
Cosmos 1975 3.6 23:01:04 10° NNW 23:04:22 45° WNW 23:04:22 45° WNW
Cosmos 1818 3.8 23:00:04 10° NW 23:05:24 53° WSW 23:05:31 53° SW
RESURS DK-1 2.9 23:01:28 10° NNW 23:05:34 52° ENE 23:05:36 52° ENE
Cosmos 2298 Rocket 4.2 23:08:45 55° ESE 23:08:57 55° ESE 23:14:08 10° NNE
Nimbus 7 Rocket 4.3 23:03:50 10° NNE 23:09:45 79° ESE 23:10:54 59° S
Meteor 1-12 Rocket 4.5 23:05:40 10° N 23:11:32 65° ENE 23:12:50 50° SE
COBE Rocket 3.9 23:11:51 68° SW 23:12:15 72° W 23:17:24 10° NNW
Cosmos 2366 rocket 4.5 23:07:46 10° NNW 23:13:38 48° W 23:15:06 40° SW
Cosmos 1821 Rocket 4.0 23:08:17 10° N 23:14:45 83° E 23:16:21 54° SSE
Cosmos 1934 Rocket 4.5 23:11:11 10° N 23:17:10 50° ENE 23:19:02 38° ESE
Gblst 52 Del rocket 4.3 23:11:14 10° WNW 23:18:02 81° SSW 23:20:01 45° SE
Cosmos 1833 4.2 23:14:57 10° NNW 23:20:44 79° ENE 23:22:04 54° SE
Resurs 1-4 Rocket 4.4 23:25:07 10° ENE 23:26:48 11° E 23:28:27 10° ESE
Cosmos 1703 Rocket 3.8 23:31:41 59° WNW 23:31:41 59° WNW 23:35:59 10° N
SL-16 R/B 4.4 23:27:35 10° ESE 23:32:23 24° NE 23:37:10 10° N
SL-27 R/B 3.8 23:29:22 10° NNW 23:31:28 36° N 23:31:28 36° N
Cosmos 1782 Rocket 3.7 23:29:47 10° NNW 23:34:00 66° WNW 23:34:00 66° WNW
ATLAS CENTAUR R/B 2.6 23:36:43 31° ENE 23:36:43 31° ENE 23:38:58 10° NE
Cosmos 2150 Rocket 3.9 23:38:06 70° SSW 23:38:46 89° ESE 23:44:07 10° NNE
Okean 3 3.5 23:43:14 78° N 23:43:14 78° N 23:47:15 10° N
Cosmos 2221 Rocket 4.2 23:43:38 47° E 23:43:45 47° E 23:48:08 10° NNE
Helios 1A 3.8 23:49:36 41° E 23:50:05 43° ENE 23:54:02 10° N
SeaSat 1 2.3 23:46:11 10° NNE 23:51:10 89° WNW 23:51:43 71° SSW
Okean 1-7 4.0 23:55:19 34° WNW 23:55:23 34° WNW 23:59:19 10° N
Cosmos 1378 4.0 23:56:20 44° NW 23:56:20 44° NW 23:59:20 10° N
